Location: Ljubljana
(46.0550°N, 14.5140°E)
Time: 17:58:03
(UTC+01:00)

ISS - Visible Passes

Search period start: 14 December 2017 00:00
Search period end: 24 December 2017 00:00
Orbit: 403 x 406 km, 51.6° (Epoch: 15 December)

Date Brightness Start Highest point End Pass type
(mag) Time Alt. Az. Time Alt. Az. Time Alt. Az.
14 Dec -3.9 17:12:32 10° WNW 17:15:51 81° NNE 17:19:07 10° ESE visible
14 Dec -1.2 18:49:44 10° W 18:51:58 17° SW 18:52:26 17° SSW visible
15 Dec -1.9 17:57:01 10° WNW 17:59:55 29° SW 18:02:49 10° SSE visible
16 Dec -2.9 17:04:36 10° WNW 17:07:48 51° SW 17:11:00 10° SE visible
17 Dec -0.6 17:49:48 10° W 17:51:37 14° SW 17:53:27 10° SSW visible
18 Dec -1.1 16:56:51 10° W 16:59:34 24° SW 17:02:17 10° SSE visible
20 Dec -0.1 16:49:58 10° WSW 16:51:10 12° SW 16:52:21 10° SSW visible
